Back to catalog

BREEZE-M R/B

AliveHEO
NORAD 37603·ROCKET BODY·🇷🇺 Russia

Launched May 20, 2011 from Baikonur Cosmodrome

Loading…

Next Passes (next 24 hours)

TLE

FreshSource: Space-Track

Epoch: Sep 14, 2026, 07:28 UTC

1 37603U 11021B   26257.31172233 -.00000160  00000-0  00000-0 0  9996
2 37603  14.8054 299.2392 4865078  54.6597 341.7469  1.92764245107780

Track BREEZE-M R/B in real time with AllMySat

Download on the App Store